[[{"header":{"parameterUnit":"m.s-1","parameterCategory":2,"la1":30.2991,"la2":30.254,"lo1":-89.0895,"lo2":-89.0444,"dy":0.0017,"dx":0.0017,"nx":28,"ny":28,"refTime":"2025-04-17T21:00:00:Z","depth":"0","parameterNumber":2,"parameterNumberName":"U-component_of_CURRENTS"},"data":[0,0,0,0,0,0,0,0,0,0,0,0,0,0,0,0,0,0,0,0,0,0,0,0,0,0,0,0,0,0,0,0,0,0,0,0,0,0,0,0,0,0,0,0,0,0,0,0,0,0,0,0,0,0,0,0,0,0,0.2396,0.2396,0,0.2392,0.2392,0.2392,0.2372,0.2372,0.2371,0.2371,0.236,0.236,0.236,0,0,0,0,0,0,0,0,0,0,0,0,0,0.2429,0.2428,0.2396,0.2396,0.2396,0.2393,0.2392,0.2392,0.2372,0.2372,0.2371,0.2371,0.236,0.236,0.236,0,0,0,0,0,0,0,0,0,0,0,0,0,0.2417,0.2428,0.2396,0.2388,0.2387,0.2393,0.2392,0.2392,0.2372,0.2372,0.2371,0.2371,0.236,0.236,0.236,0.2367,0,0,0.236,0.236,0,0,0,0,0,0,0,0,0.2417,0.2415,0.2389,0.2388,0.2388,0.2384,0.24,0.2384,0.2372,0.2375,0.2371,0.2371,0.237,0.2369,0.2366,0.2367,0.2366,0.236,0.236,0.236,0.236,0,0,0,0,0,0,0,0.2418,0.2415,0.2392,0.2389,0.2388,0.24,0.2397,0.2397,0.2373,0.2375,0.2374,0.2378,0.2369,0.2366,0.2365,0.2366,0.236,0.236,0.236,0.236,0.2467,0.247,0,0,0,0,0,0,0.2421,0.2416,0.2392,0.2392,0.2405,0.2399,0.2396,0.2384,0.2373,0.2371,0.2378,0.2377,0.2366,0.2365,0.2365,0.2454,0.236,0.236,0.236,0.2464,0.2468,0.2471,0,0,0,0,0,0,0.2422,0.2419,0.2392,0.2407,0.2405,0.2399,0.2386,0.2384,0.2385,0.2376,0.2374,0.2382,0.2366,0.2365,0.2386,0.245,0.236,0.236,0.2461,0.2465,0.2469,0.258,0,0,0,0,0,0,0.2422,0.2418,0.2413,0.2407,0.2404,0.2406,0.2386,0.2384,0.2389,0.2387,0.2378,0.2376,0.2365,0.2386,0.2386,0.2448,0.236,0.2457,0.2463,0.2468,0.2572,0.2587,0.26,0,0,0,0,0,0.2423,0.2414,0.2412,0.241,0.2395,0.2407,0.2407,0.2401,0.239,0.2398,0.2399,0.2377,0.2421,0.2388,0.2387,0.2451,0.2455,0.2461,0.2468,0.2566,0.2584,0.26,0,0,0,0,0,0,0.2426,0.2412,0.2409,0.2396,0.2409,0.2405,0.2407,0.2407,0.2412,0.2409,0.2397,0.2396,0.2447,0.243,0.2393,0.2501,0.2442,0.2448,0.2517,0.2534,0.2547,0.2565,0.236,0,0,0,0,0,0.2426,0.2412,0.2415,0.2407,0.2412,0.2412,0.2415,0.2416,0.242,0.2421,0.2422,0.2436,0.2473,0.2485,0.2501,0.2544,0.2562,0.2591,0.2605,0.2617,0.2633,0.2725,0.2749,0.2492,0.2492,0.2492,0,0,0.2425,0.2416,0.2408,0.2408,0.241,0.2438,0.2412,0.2422,0.2462,0.242,0.2466,0.2477,0.2495,0.2556,0.2579,0.2549,0.2701,0.2625,0.2635,0.2645,0.2735,0.276,0.2782,0.2497,0.2496,0.2495,0,0,0.2429,0.241,0.2409,0.2426,0.2439,0.245,0.2458,0.2468,0.2487,0.2523,0.2532,0.2583,0.26,0.2655,0.268,0.2778,0.277,0.2784,0.2868,0.2958,0.298,0.2999,0.3059,0.3083,0.2792,0.2792,0.2792,0,0.2436,0.2436,0.2417,0.2437,0.2464,0.2462,0.25,0.2524,0.2547,0.2585,0.2549,0.2651,0.266,0.2783,0.2825,0.2813,0.2846,0.28,0.2977,0.2996,0.3015,0.3071,0.3096,0.2798,0.2798,0.2797,0.2796,0,0.2449,0.2465,0.247,0.2499,0.2525,0.2553,0.2592,0.2629,0.2643,0.2675,0.2773,0.2795,0.2863,0.2888,0.2882,0.3036,0.3012,0.2982,0.2933,0.3047,0.3099,0.3123,0.2807,0.2805,0.2803,0.2802,0,0,0.2436,0.2473,0.2479,0.2522,0.2564,0.2594,0.2668,0.2748,0.2819,0.2845,0.2946,0.3025,0.3037,0.3069,0.309,0.3168,0.3325,0.3134,0.3136,0.3191,0.3513,0.3399,0.3413,0.3325,0.333,0.3334,0.3499,0,0.2466,0.2519,0.2533,0.2619,0.2662,0.2703,0.2782,0.2854,0.2906,0.3,0.3057,0.3146,0.311,0.3159,0.3237,0.3308,0.3393,0.3281,0.3397,0.34,0.3283,0.344,0.3201,0.332,0.3522,0.3526,0.3529,0,0.2486,0.2525,0.2599,0.2707,0.273,0.2786,0.2919,0.299,0.3115,0.3155,0.3246,0.328,0.3424,0.3355,0.354,0.347,0.351,0.3542,0.3549,0.342,0.3331,0.3239,0.3356,0.3244,0.3566,0.3563,0.356,0,0.2504,0.2585,0.265,0.2682,0.279,0.285,0.2918,0.3038,0.3117,0.3265,0.333,0.3468,0.3548,0.3634,0.3684,0.3638,0.3855,0.3797,0.3733,0.3724,0.3532,0.3498,0.3549,0.3936,0.3935,0.3935,0.3934,0,0.2546,0.261,0.2664,0.2709,0.2819,0.2879,0.3007,0.3097,0.3219,0.3337,0.3414,0.3525,0.3623,0.3733,0.3763,0.3826,0.3926,0.3789,0.3781,0.3561,0.3529,0.3427,0.3394,0.3941,0.394,0.3938,0.3937,0,0.2592,0.261,0.2708,0.2804,0.2832,0.2921,0.3041,0.3145,0.3244,0.3401,0.3454,0.3609,0.3752,0.382,0.397,0.3922,0.3866,0.398,0.3697,0.3651,0.3443,0.3424,0.3395,0.3293,0.3953,0.3952,0.395,0,0.2631,0.2675,0.2769,0.2824,0.2875,0.2978,0.3061,0.3157,0.3254,0.3451,0.3539,0.3702,0.3802,0.3947,0.3906,0.3941,0.3836,0.3729,0.3595,0.3439,0.3415,0.3309,0.3218,0.3395,0.3389,0.3384,0.3381,0,0.2736,0.2756,0.2834,0.2914,0.2996,0.3068,0.3175,0.3226,0.3359,0.3459,0.3598,0.3681,0.3791,0.3707,0.3722,0.3702,0.3505,0.3631,0.3561,0.3072,0.2874,0.2764,0.327,0.3339,0.3343,0.3346,0.3348,0.335,0.2826,0.2895,0.2959,0.3035,0.3101,0.3133,0.3152,0.3238,0.3314,0.3397,0.3552,0.3568,0.3512,0.3481,0.3441,0.3169,0.3253,0.3018,0.3041,0.2974,0.2768,0.317,0.3162,0.3165,0.3168,0.317,0.3172,0,0.2945,0.2993,0.3074,0.3124,0.3151,0.3163,0.3213,0.3177,0.3192,0.3273,0.3326,0.3195,0.3069,0.2978,0.2736,0.2589,0.2463,0.2507,0.2306,0.2272,0.2704,0.2566,0.2315,0.2315,0.2315,0.2315,0.2315,0.2316,0.3018,0.3103,0.3109,0.313,0.314,0.309,0.307,0.3006,0.2989,0.2863,0.2744,0.2746,0.2674,0.2496,0.2241,0.2166,0.2017,0.1887,0.1982,0.2268,0.2316,0.2362,0.2224,0.1906,0.1906,0.1373,0.1369,0.1366]},{"header":{"parameterUnit":"m.s-1","parameterCategory":2,"la1":30.2991,"la2":30.254,"lo1":-89.0895,"lo2":-89.0444,"dy":0.0017,"dx":0.0017,"nx":28,"ny":28,"refTime":"2025-04-17T21:00:00:Z","depth":"0","parameterNumber":3,"parameterNumberName":"V-component_of_CURRENTS"},"data":[0,0,0,0,0,0,0,0,0,0,0,0,0,0,0,0,0,0,0,0,0,0,0,0,0,0,0,0,0,0,0,0,0,0,0,0,0,0,0,0,0,0,0,0,0,0,0,0,0,0,0,0,0,0,0,0,0,0,0.017,0.017,0,0.0152,0.0151,0.0151,0.0127,0.0127,0.0127,0.0127,0.0089,0.0089,0.0088,0,0,0,0,0,0,0,0,0,0,0,0,0,0.0171,0.0171,0.017,0.017,0.017,0.0152,0.0151,0.0151,0.0127,0.0127,0.0127,0.0127,0.009,0.0089,0.0088,0,0,0,0,0,0,0,0,0,0,0,0,0,0.0162,0.0171,0.017,0.0157,0.0156,0.0152,0.0151,0.0151,0.0128,0.0127,0.0127,0.0126,0.009,0.0089,0.0088,0.0088,0,0,0.0084,0.0084,0,0,0,0,0,0,0,0,0.0163,0.0162,0.0159,0.0158,0.0156,0.0143,0.0138,0.0129,0.0128,0.0137,0.0127,0.0126,0.0106,0.0104,0.01,0.0087,0.0085,0.0084,0.0083,0.0083,0.0083,0,0,0,0,0,0,0,0.0164,0.0163,0.0161,0.0159,0.0157,0.0147,0.0146,0.0136,0.0123,0.0136,0.0135,0.0135,0.0105,0.0101,0.0099,0.0084,0.0084,0.0083,0.0082,0.0082,0.0061,0.0061,0,0,0,0,0,0,0.017,0.0164,0.0162,0.0161,0.016,0.0148,0.0146,0.0146,0.0123,0.012,0.0135,0.0134,0.0103,0.01,0.0097,0.0107,0.0083,0.0082,0.0081,0.0061,0.0061,0.0061,0,0,0,0,0,0,0.017,0.017,0.0163,0.0163,0.0161,0.0148,0.0149,0.0146,0.0142,0.0123,0.0119,0.0134,0.0103,0.0099,0.0091,0.0105,0.0081,0.008,0.0061,0.0061,0.0061,0.012,0,0,0,0,0,0,0.017,0.017,0.0173,0.0163,0.0162,0.0167,0.015,0.0146,0.0143,0.0141,0.0121,0.0117,0.0102,0.0093,0.009,0.0103,0.0079,0.006,0.0061,0.0061,0.0118,0.0122,0.0126,0,0,0,0,0,0.017,0.0178,0.0173,0.0173,0.0166,0.0167,0.0166,0.0154,0.0144,0.0148,0.0131,0.0118,0.0092,0.0092,0.0088,0.0102,0.006,0.0061,0.0061,0.0116,0.0121,0.0126,0,0,0,0,0,0,0.0179,0.0176,0.0171,0.0177,0.0175,0.0164,0.0166,0.0158,0.0147,0.0143,0.0121,0.0117,0.0113,0.0097,0.0098,0.0094,0.0073,0.0073,0.0116,0.0121,0.0125,0.0176,0.0078,0,0,0,0,0,0.0183,0.0188,0.0184,0.0188,0.0189,0.0178,0.0176,0.0169,0.0159,0.0154,0.014,0.0123,0.0111,0.0108,0.0092,0.0096,0.0105,0.0099,0.0103,0.0107,0.0145,0.0164,0.0175,0.0062,0.0062,0.0062,0,0,0.0186,0.0187,0.0188,0.019,0.0186,0.0197,0.0176,0.0178,0.0187,0.0152,0.0157,0.0135,0.0113,0.0113,0.0111,0.0104,0.0139,0.0107,0.0111,0.0147,0.0166,0.0177,0.0187,0.0062,0.0062,0.0062,0,0,0.02,0.0197,0.0208,0.0213,0.0214,0.021,0.0213,0.0206,0.0203,0.0202,0.018,0.0178,0.0149,0.0152,0.0146,0.0164,0.0156,0.0143,0.0213,0.023,0.0241,0.025,0.0265,0.0275,0.015,0.015,0.015,0,0.0204,0.0225,0.0211,0.0228,0.0243,0.022,0.0244,0.0236,0.0227,0.0248,0.0209,0.0215,0.0177,0.0217,0.0209,0.0179,0.0184,0.0197,0.0239,0.0249,0.0258,0.027,0.0281,0.0153,0.0152,0.0152,0.0152,0,0.023,0.0251,0.026,0.0277,0.0285,0.0304,0.0298,0.0308,0.0296,0.0301,0.033,0.0292,0.0315,0.028,0.0243,0.0292,0.0273,0.0239,0.0235,0.0273,0.0283,0.0293,0.0157,0.0156,0.0155,0.0154,0,0,0.0234,0.0274,0.0279,0.0317,0.0321,0.0342,0.0358,0.0393,0.0447,0.0416,0.0497,0.0442,0.0448,0.0442,0.0407,0.0405,0.0436,0.0349,0.0348,0.038,0.048,0.0414,0.0418,0.0407,0.041,0.0411,0.0458,0,0.0267,0.0327,0.0329,0.0394,0.0434,0.0434,0.0469,0.0495,0.0508,0.0576,0.0558,0.0604,0.0503,0.053,0.0513,0.0472,0.0468,0.0428,0.0426,0.0427,0.0377,0.0429,0.042,0.0456,0.0467,0.0469,0.047,0,0.03,0.0344,0.0413,0.0501,0.0519,0.0553,0.0643,0.0671,0.0739,0.0758,0.0802,0.0796,0.082,0.0717,0.0687,0.0666,0.0585,0.0529,0.0529,0.0465,0.0381,0.0421,0.0474,0.0362,0.0486,0.0484,0.0483,0,0.0346,0.0414,0.0483,0.0506,0.0581,0.0631,0.0677,0.0741,0.0808,0.09,0.0975,0.0986,0.1027,0.094,0.0805,0.076,0.0761,0.0686,0.0556,0.055,0.0545,0.0534,0.051,0.0666,0.0666,0.0666,0.0666,0,0.0402,0.0466,0.0521,0.057,0.0681,0.0705,0.0836,0.0881,0.0987,0.111,0.1092,0.1197,0.1082,0.1059,0.0902,0.0776,0.084,0.0601,0.057,0.0559,0.055,0.0452,0.037,0.0668,0.0667,0.0667,0.0667,0,0.0465,0.0488,0.0588,0.0678,0.0712,0.0799,0.0937,0.104,0.1117,0.1286,0.1332,0.1384,0.1357,0.1215,0.1093,0.0918,0.0708,0.0712,0.0703,0.0668,0.0416,0.0337,0.0288,0.0221,0.0602,0.06,0.0599,0,0.051,0.0564,0.0671,0.0733,0.0785,0.0906,0.1002,0.1099,0.1214,0.1403,0.1503,0.1543,0.159,0.1393,0.1105,0.0864,0.0704,0.0663,0.0559,0.0433,0.0323,0.0265,0.0208,0.0576,0.0575,0.0574,0.0573,0,0.0608,0.0638,0.0715,0.0832,0.0935,0.106,0.1204,0.1309,0.1448,0.16,0.1778,0.1838,0.1674,0.1442,0.109,0.0901,0.0572,0.0633,0.0526,0.0331,0.025,0.0161,0.0507,0.0565,0.0566,0.0566,0.0567,0.0567,0.0678,0.0741,0.0821,0.0934,0.1052,0.119,0.1304,0.1467,0.1656,0.1888,0.1946,0.206,0.1714,0.1249,0.0998,0.0513,0.0503,0.0347,0.0275,0.0238,0.0137,0.0454,0.0447,0.0447,0.0447,0.0447,0.0447,0,0.0738,0.08,0.0917,0.1044,0.1174,0.1219,0.142,0.1541,0.176,0.1987,0.2146,0.2011,0.1609,0.1171,0.051,0.0209,0.0105,0.0055,-0.0007,-0.0041,0.0278,0.0238,0.0158,0.0158,0.0158,0.0158,0.0158,0.0158,0.0774,0.0863,0.0912,0.1103,0.1204,0.1364,0.147,0.1662,0.1837,0.2062,0.2123,0.2151,0.1765,0.0741,0.0083,-0.0061,-0.0253,-0.0311,-0.0402,-0.0172,-0.0149,-0.0128,-0.0183,-0.0349,-0.035,-0.0679,-0.0682,-0.0685]}],[{"header":{"parameterUnit":"m.s-1","parameterCategory":2,"la1":30.2991,"la2":30.254,"lo1":-89.0895,"lo2":-89.0444,"dy":0.0017,"dx":0.0017,"nx":28,"ny":28,"refTime":"2025-04-17T21:00:00:Z","depth":"2","parameterNumber":2,"parameterNumberName":"U-component_of_CURRENTS"},"data":[0,0,0,0,0,0,0,0,0,0,0,0,0,0,0,0,0,0,0,0,0,0,0,0,0,0,0,0,0,0,0,0,0,0,0,0,0,0,0,0,0,0,0,0,0,0,0,0,0,0,0,0,0,0,0,0,0,0,0.2023,0.2023,0,0.2039,0.2038,0.2038,0.2037,0.2038,0.2038,0.2038,0.2063,0.2063,0.2064,0,0,0,0,0,0,0,0,0,0,0,0,0,0.1999,0.1999,0.2023,0.2023,0.2024,0.2039,0.2038,0.2038,0.2037,0.2038,0.2038,0.2038,0.2063,0.2063,0.2064,0,0,0,0,0,0,0,0,0,0,0,0,0,0.2007,0.1999,0.2023,0.2029,0.203,0.2039,0.2038,0.2038,0.2037,0.2038,0.2038,0.2038,0.2063,0.2063,0.2064,0.2061,0,0,0.2066,0.2066,0,0,0,0,0,0,0,0,0.2006,0.2007,0.2027,0.2029,0.203,0.2041,0.204,0.2048,0.2037,0.2029,0.2038,0.2038,0.206,0.206,0.2055,0.2062,0.2064,0.2066,0.2067,0.2067,0.2067,0,0,0,0,0,0,0,0.2006,0.2006,0.2024,0.2028,0.203,0.2034,0.2035,0.2041,0.2038,0.203,0.2031,0.2041,0.206,0.2055,0.2056,0.2064,0.2066,0.2067,0.2067,0.2067,0.2131,0.2132,0,0,0,0,0,0,0.2013,0.2006,0.2024,0.2025,0.2024,0.2035,0.2035,0.2033,0.2038,0.2041,0.2041,0.2041,0.2053,0.2055,0.2057,0.2124,0.2067,0.2068,0.2068,0.2129,0.2131,0.2132,0,0,0,0,0,0,0.2012,0.2014,0.2023,0.2021,0.2023,0.2035,0.2032,0.2033,0.2044,0.2047,0.2049,0.2053,0.2054,0.2056,0.2094,0.2122,0.2068,0.2068,0.2128,0.213,0.2132,0.2213,0,0,0,0,0,0,0.2011,0.2013,0.2015,0.2021,0.2023,0.204,0.2032,0.2033,0.2051,0.2052,0.2058,0.206,0.2054,0.2093,0.2095,0.2122,0.2069,0.2126,0.2129,0.2131,0.2209,0.2217,0.2225,0,0,0,0,0,0.201,0.2019,0.2014,0.2017,0.2024,0.2041,0.2043,0.2049,0.2052,0.2059,0.2079,0.206,0.2109,0.2096,0.2097,0.2125,0.2125,0.2128,0.2131,0.2205,0.2216,0.2225,0,0,0,0,0,0,0.2022,0.202,0.2015,0.2026,0.2037,0.2043,0.2056,0.2059,0.2077,0.2085,0.2083,0.2087,0.2133,0.2115,0.21,0.2149,0.2111,0.2114,0.2167,0.2177,0.2185,0.2242,0.207,0,0,0,0,0,0.2022,0.2019,0.2027,0.2037,0.2043,0.205,0.2059,0.2065,0.2083,0.209,0.2095,0.2109,0.2141,0.215,0.2165,0.2189,0.2216,0.2205,0.2213,0.222,0.2267,0.2361,0.2384,0.2142,0.2142,0.2142,0,0,0.2025,0.2031,0.2026,0.2038,0.2045,0.2065,0.2055,0.2078,0.21,0.2092,0.2123,0.2143,0.2157,0.2196,0.2212,0.2186,0.229,0.2224,0.223,0.2274,0.2367,0.2391,0.2413,0.2144,0.2143,0.2143,0,0,0.2042,0.204,0.2043,0.2058,0.2079,0.2085,0.2097,0.2109,0.212,0.216,0.2167,0.2224,0.2232,0.2269,0.2287,0.2349,0.2338,0.2325,0.2406,0.2496,0.2518,0.2538,0.2549,0.257,0.2319,0.2319,0.2319,0,0.2046,0.206,0.2051,0.2074,0.2095,0.2099,0.2125,0.2138,0.2162,0.2201,0.2183,0.2285,0.2284,0.238,0.2399,0.2374,0.2395,0.2367,0.2511,0.2532,0.2551,0.2558,0.258,0.2323,0.2323,0.2323,0.2322,0,0.207,0.2089,0.2102,0.2122,0.2138,0.2169,0.2186,0.2211,0.2232,0.2267,0.2367,0.2392,0.2464,0.2457,0.2452,0.2577,0.2534,0.252,0.2494,0.2581,0.2581,0.2602,0.233,0.2328,0.2327,0.2326,0,0,0.2059,0.2106,0.2112,0.2137,0.2173,0.219,0.2237,0.2299,0.2368,0.2406,0.2511,0.2577,0.2616,0.2641,0.2638,0.2712,0.2833,0.2675,0.2678,0.2699,0.2987,0.2857,0.2866,0.2848,0.2853,0.2858,0.2914,0,0.2085,0.2135,0.2152,0.2206,0.2234,0.2265,0.2332,0.2391,0.2437,0.2533,0.2607,0.2705,0.2673,0.2725,0.28,0.2842,0.2902,0.2817,0.289,0.2892,0.2779,0.2893,0.2636,0.2659,0.2934,0.2938,0.294,0,0.2103,0.2138,0.2193,0.2278,0.2298,0.234,0.2446,0.2495,0.2629,0.2686,0.2797,0.2847,0.2976,0.293,0.3074,0.302,0.3025,0.3041,0.3043,0.2926,0.2805,0.2627,0.2687,0.2975,0.2972,0.297,0.2967,0,0.2103,0.2168,0.2216,0.2239,0.2334,0.2385,0.2441,0.2559,0.2646,0.2781,0.287,0.3015,0.3094,0.3173,0.3192,0.3154,0.3328,0.3267,0.315,0.3136,0.2939,0.29,0.339,0.339,0.339,0.339,0.339,0,0.2127,0.2163,0.2226,0.2259,0.2357,0.2406,0.2537,0.2609,0.2767,0.2878,0.2951,0.3062,0.3171,0.3257,0.3263,0.3273,0.3384,0.321,0.3178,0.2948,0.2912,0.3208,0.3186,0.3392,0.3391,0.3391,0.3391,0,0.2125,0.2158,0.2211,0.2312,0.236,0.2415,0.2588,0.2676,0.2813,0.2946,0.3004,0.3153,0.3234,0.3292,0.3404,0.3342,0.3378,0.3342,0.3025,0.2956,0.3095,0.3076,0.3231,0.3228,0.3225,0.3222,0.322,0,0.2134,0.2158,0.2251,0.229,0.2337,0.2447,0.254,0.2689,0.2759,0.298,0.3026,0.3175,0.3209,0.3302,0.3254,0.3235,0.3322,0.2977,0.2874,0.3143,0.3097,0.3082,0.3068,0.2613,0.2607,0.2601,0.2597,0,0.2129,0.2151,0.2208,0.2306,0.2367,0.2465,0.2578,0.2646,0.2791,0.2893,0.299,0.3053,0.3098,0.297,0.2956,0.2915,0.2962,0.2859,0.3291,0.2686,0.2565,0.2517,0.2523,0.2547,0.2552,0.2556,0.2558,0.256,0.2126,0.2155,0.2221,0.2321,0.2382,0.2443,0.2518,0.2565,0.2656,0.271,0.2816,0.2783,0.2784,0.2621,0.2528,0.2459,0.2657,0.2532,0.2549,0.2571,0.2483,0.2364,0.2287,0.2291,0.2293,0.2296,0.2298,0,0.2114,0.2169,0.2241,0.2322,0.2377,0.2458,0.253,0.2515,0.2513,0.2486,0.2495,0.2236,0.2153,0.2178,0.1981,0.1947,0.1922,0.1872,0.1828,0.1879,0.1924,0.1803,0.1427,0.1424,0.1421,0.1418,0,0,0.2104,0.2141,0.2189,0.2278,0.2386,0.2442,0.2482,0.238,0.2314,0.2083,0.2004,0.2076,0.2138,0.1766,0.1691,0.1538,0.1702,0.1471,0.2177,0.2181,0.2223,0.2315,0.2186,0,0,0,0,0]},{"header":{"parameterUnit":"m.s-1","parameterCategory":2,"la1":30.2991,"la2":30.254,"lo1":-89.0895,"lo2":-89.0444,"dy":0.0017,"dx":0.0017,"nx":28,"ny":28,"refTime":"2025-04-17T21:00:00:Z","depth":"2","parameterNumber":3,"parameterNumberName":"V-component_of_CURRENTS"},"data":[0,0,0,0,0,0,0,0,0,0,0,0,0,0,0,0,0,0,0,0,0,0,0,0,0,0,0,0,0,0,0,0,0,0,0,0,0,0,0,0,0,0,0,0,0,0,0,0,0,0,0,0,0,0,0,0,0,0,0.0016,0.0016,0,-0.0003,-0.0003,-0.0004,-0.0019,-0.0019,-0.0019,-0.0019,-0.005,-0.0051,-0.0052,0,0,0,0,0,0,0,0,0,0,0,0,0,0.0015,0.0016,0.0016,0.0016,0.0015,-0.0003,-0.0003,-0.0004,-0.0019,-0.0019,-0.0019,-0.0019,-0.005,-0.0051,-0.0052,0,0,0,0,0,0,0,0,0,0,0,0,0,0.0008,0.0016,0.0016,0.0006,0.0005,-0.0003,-0.0003,-0.0004,-0.0019,-0.0019,-0.0019,-0.002,-0.005,-0.0051,-0.0052,-0.0055,0,0,-0.0055,-0.0056,0,0,0,0,0,0,0,0,0.0008,0.0008,0.0008,0.0007,0.0005,-0.0008,-0.0015,-0.0021,-0.0019,-0.001,-0.0019,-0.002,-0.0037,-0.0039,-0.0043,-0.0056,-0.0058,-0.0055,-0.0056,-0.0056,-0.0057,0,0,0,0,0,0,0,0.0009,0.0008,0.0008,0.0007,0.0006,-0.0006,-0.0007,-0.0016,-0.0023,-0.0011,-0.0012,-0.0014,-0.0038,-0.0042,-0.0044,-0.0058,-0.0055,-0.0056,-0.0057,-0.0057,-0.0068,-0.0068,0,0,0,0,0,0,0.0013,0.0009,0.0009,0.0007,0.0007,-0.0005,-0.0007,-0.0004,-0.0023,-0.0025,-0.0013,-0.0014,-0.004,-0.0042,-0.0045,-0.0034,-0.0056,-0.0057,-0.0058,-0.0068,-0.0068,-0.0068,0,0,0,0,0,0,0.0014,0.0014,0.0009,0.0008,0.0006,-0.0005,-0.0002,-0.0004,-0.0007,-0.0024,-0.0027,-0.0013,-0.004,-0.0043,-0.005,-0.0036,-0.0058,-0.0059,-0.0069,-0.0068,-0.0068,-0.0023,0,0,0,0,0,0,0.0014,0.0014,0.0016,0.0008,0.0007,0.001,-0.0002,-0.0005,-0.0007,-0.0008,-0.0025,-0.0028,-0.004,-0.0048,-0.0051,-0.0038,-0.006,-0.0069,-0.0068,-0.0068,-0.0025,-0.0021,-0.0018,0,0,0,0,0,0.0014,0.0021,0.0017,0.0016,0.0011,0.001,0.0009,-0.0001,-0.0007,-0.0004,-0.0017,-0.0028,-0.0046,-0.0049,-0.0052,-0.0039,-0.007,-0.0069,-0.0068,-0.0027,-0.0022,-0.0018,0,0,0,0,0,0,0.002,0.002,0.0015,0.0021,0.0017,0.0008,0.0009,0.0002,-0.0005,-0.0007,-0.0025,-0.0029,-0.003,-0.0042,-0.0045,-0.0041,-0.0059,-0.0059,-0.0026,-0.0022,-0.0019,0.0015,-0.0061,0,0,0,0,0,0.0023,0.0029,0.0024,0.0029,0.0029,0.0019,0.0017,0.0013,0.0005,0.0001,-0.0012,-0.0023,-0.003,-0.0032,-0.0043,-0.004,-0.0047,-0.0034,-0.003,-0.0027,-0.0002,-0.0,0.0006,-0.0065,-0.0065,-0.0065,0,0,0.0025,0.0027,0.0029,0.003,0.0027,0.0036,0.0018,0.002,0.003,-0.0001,0.0005,-0.0014,-0.0028,-0.0025,-0.0026,-0.0032,-0.0017,-0.0026,-0.0023,0.0001,0.0001,0.0008,0.0015,-0.0064,-0.0064,-0.0065,0,0,0.0039,0.0036,0.0049,0.0052,0.0053,0.0048,0.0051,0.0044,0.0043,0.0043,0.0026,0.0022,0.0003,0.0005,0.0002,0.0021,-0.0002,0.0008,0.006,0.0061,0.0067,0.0073,0.0048,0.0051,0.0014,0.0015,0.0015,0,0.004,0.0062,0.0051,0.0068,0.0077,0.0057,0.0077,0.0074,0.0065,0.0079,0.0051,0.0051,0.0025,0.0054,0.0053,0.0032,0.0018,0.0044,0.0067,0.0073,0.0078,0.0051,0.0054,0.0017,0.0017,0.0016,0.0016,0,0.007,0.0088,0.0096,0.0114,0.0117,0.0131,0.0128,0.0136,0.0126,0.0128,0.0145,0.0115,0.0126,0.0105,0.0081,0.0111,0.0082,0.0067,0.006,0.0088,0.0057,0.0059,0.002,0.0019,0.0019,0.0018,0,0,0.0073,0.0111,0.0115,0.0143,0.0147,0.016,0.0178,0.0202,0.0239,0.0216,0.0266,0.0233,0.0227,0.0224,0.0195,0.0188,0.0185,0.0145,0.0144,0.0127,0.0169,0.0127,0.0125,0.0172,0.0174,0.0175,0.0124,0,0.0101,0.0153,0.0158,0.0207,0.0235,0.0234,0.026,0.0279,0.0285,0.0326,0.0312,0.0339,0.027,0.0283,0.0264,0.0218,0.0198,0.0199,0.014,0.0138,0.0104,0.0129,0.0158,0.0115,0.0127,0.0127,0.0127,0,0.0134,0.0167,0.022,0.028,0.0292,0.0315,0.037,0.0389,0.0433,0.0449,0.0474,0.0465,0.047,0.0402,0.0342,0.0346,0.0264,0.0211,0.0208,0.0164,0.0102,0.0093,0.0118,0.0131,0.013,0.013,0.013,0,0.0158,0.0217,0.0265,0.0283,0.0335,0.0366,0.0389,0.0429,0.0476,0.0537,0.0586,0.0583,0.0597,0.0515,0.0397,0.0375,0.0319,0.0274,0.0157,0.0151,0.0165,0.0159,0.0228,0.0228,0.0228,0.0229,0.0229,0,0.0193,0.0235,0.0287,0.0318,0.0389,0.0404,0.0483,0.0513,0.0583,0.0673,0.0654,0.0733,0.0627,0.0582,0.0451,0.0318,0.0358,0.0181,0.0149,0.0176,0.0172,0.0183,0.0179,0.0227,0.0227,0.0227,0.0228,0,0.0205,0.0242,0.0306,0.0375,0.0403,0.0446,0.054,0.0604,0.0659,0.0778,0.0812,0.085,0.0802,0.0663,0.0537,0.0395,0.0268,0.0201,0.0226,0.0197,0.0079,0.0077,0.0076,0.0074,0.0073,0.0072,0.0071,0,0.0216,0.0251,0.034,0.0385,0.0416,0.0492,0.0555,0.0634,0.0716,0.0867,0.0938,0.0944,0.0975,0.0759,0.0527,0.0295,0.026,0.0146,0.0108,0.0101,0.007,0.007,0.007,0.0129,0.0128,0.0128,0.0128,0,0.0231,0.026,0.0313,0.0413,0.0488,0.058,0.0681,0.0778,0.0898,0.1027,0.1185,0.1226,0.1027,0.0835,0.0499,0.0341,0.0187,0.013,0.015,0.0158,0.0146,0.0116,0.0116,0.0125,0.0125,0.0125,0.0125,0.0125,0.0239,0.0278,0.0361,0.0453,0.0544,0.0679,0.0785,0.0939,0.1127,0.1336,0.1334,0.1383,0.1127,0.0716,0.0448,0.0154,0.0159,0.0048,0.0052,0.0055,0.0066,0.0052,0.0013,0.0013,0.0013,0.0012,0.0012,0,0.0268,0.0318,0.0402,0.0536,0.0654,0.0687,0.0881,0.1031,0.1299,0.1423,0.1541,0.1298,0.1065,0.0763,0.033,0.0065,0.0054,-0.0018,0.0035,0.004,0.0044,0.0056,-0.0001,-0.0002,-0.0003,-0.0004,0,0,0.0291,0.0382,0.0435,0.0628,0.0711,0.0889,0.1013,0.1251,0.1394,0.157,0.1574,0.1501,0.1138,0.0814,0.0475,0.0242,0.0197,0.019,0.0229,0.0338,0.0345,0.0111,0.0138,0,0,0,0,0]}],[{"header":{"parameterUnit":"m.s-1","parameterCategory":2,"la1":30.2991,"la2":30.254,"lo1":-89.0895,"lo2":-89.0444,"dy":0.0017,"dx":0.0017,"nx":28,"ny":28,"refTime":"2025-04-17T21:00:00:Z","depth":"4","parameterNumber":2,"parameterNumberName":"U-component_of_CURRENTS"},"data":[0,0,0,0,0,0,0,0,0,0,0,0,0,0,0,0,0,0,0,0,0,0,0,0,0,0,0,0,0,0,0,0,0,0,0,0,0,0,0,0,0,0,0,0,0,0,0,0,0,0,0,0,0,0,0,0,0,0,0.1173,0.1174,0,0.1212,0.1212,0.1212,0.1251,0.1252,0.1253,0.1253,0.1303,0.1303,0.1304,0,0,0,0,0,0,0,0,0,0,0,0,0,0.1117,0.1118,0.1173,0.1174,0.1174,0.1212,0.1212,0.1212,0.1251,0.1252,0.1253,0.1254,0.1303,0.1303,0.1304,0,0,0,0,0,0,0,0,0,0,0,0,0,0.1145,0.1118,0.1173,0.12,0.1203,0.1211,0.1212,0.1212,0.1251,0.1252,0.1253,0.1254,0.1302,0.1303,0.1304,0.1288,0,0,0.1307,0.1308,0,0,0,0,0,0,0,0,0.1143,0.1147,0.1195,0.1198,0.1201,0.123,0.121,0.1239,0.1251,0.123,0.1253,0.1255,0.128,0.1283,0.1284,0.1291,0.1293,0.1307,0.1308,0.1308,0.1309,0,0,0,0,0,0,0,0.1141,0.1145,0.1186,0.1196,0.12,0.1205,0.121,0.1216,0.1247,0.1232,0.1236,0.1243,0.1282,0.1283,0.1286,0.1293,0.1307,0.1308,0.1309,0.1309,0.1381,0.1383,0,0,0,0,0,0,0.1141,0.1143,0.1185,0.1187,0.1177,0.1205,0.1211,0.1218,0.1247,0.1253,0.1242,0.1245,0.1281,0.1285,0.1288,0.1337,0.1308,0.1309,0.131,0.138,0.1382,0.1383,0,0,0,0,0,0,0.1139,0.1144,0.1183,0.1168,0.1174,0.1205,0.1213,0.1218,0.1246,0.1255,0.1261,0.1268,0.1282,0.1287,0.1315,0.1337,0.131,0.131,0.1379,0.1381,0.1382,0.1392,0,0,0,0,0,0,0.1138,0.1143,0.1161,0.1168,0.1175,0.1202,0.1212,0.1218,0.1248,0.1253,0.1278,0.1282,0.1283,0.1314,0.1316,0.1337,0.1311,0.1377,0.1379,0.1382,0.139,0.1394,0.1398,0,0,0,0,0,0.1135,0.115,0.1161,0.1167,0.1193,0.1202,0.1206,0.123,0.1249,0.126,0.1282,0.1283,0.1333,0.1315,0.1318,0.134,0.1376,0.1379,0.1382,0.1388,0.1393,0.1398,0,0,0,0,0,0,0.1136,0.1155,0.1168,0.1189,0.1202,0.121,0.1229,0.1242,0.1268,0.1283,0.1291,0.1296,0.1328,0.1337,0.1318,0.1372,0.1358,0.1362,0.1362,0.1367,0.1371,0.1411,0.1312,0,0,0,0,0,0.1143,0.116,0.1174,0.1193,0.1203,0.122,0.1234,0.1248,0.1266,0.128,0.1296,0.1321,0.1337,0.1356,0.1367,0.1393,0.1419,0.1414,0.1418,0.1421,0.1458,0.1507,0.1518,0.1393,0.1393,0.1393,0,0,0.1148,0.1163,0.1173,0.1195,0.121,0.1221,0.1231,0.1256,0.1272,0.1279,0.1316,0.133,0.1346,0.1374,0.1391,0.1388,0.1465,0.1425,0.1427,0.1463,0.1511,0.1523,0.1534,0.1395,0.1395,0.1395,0,0,0.1153,0.1181,0.1192,0.1205,0.1233,0.1241,0.1253,0.1273,0.1295,0.1324,0.1335,0.1372,0.1394,0.1414,0.1426,0.1462,0.1477,0.1466,0.1524,0.157,0.1581,0.1591,0.1616,0.1628,0.1475,0.1475,0.1475,0,0.1162,0.1176,0.1197,0.1209,0.1225,0.1251,0.1262,0.1283,0.1312,0.134,0.1344,0.1418,0.1418,0.1471,0.1485,0.1472,0.1499,0.1497,0.1575,0.1586,0.1596,0.1619,0.1633,0.1476,0.1476,0.1476,0.1476,0,0.1164,0.1185,0.1194,0.1219,0.1237,0.1253,0.1279,0.1313,0.1347,0.1372,0.1442,0.1462,0.1518,0.1514,0.1511,0.1586,0.1581,0.1563,0.156,0.1609,0.163,0.1644,0.1477,0.1477,0.1477,0.1476,0,0,0.1153,0.1188,0.1195,0.1208,0.1246,0.1256,0.1299,0.1343,0.1393,0.144,0.1508,0.1548,0.1591,0.1611,0.1619,0.1666,0.1733,0.1658,0.166,0.1679,0.1835,0.1687,0.1687,0.1732,0.1735,0.1738,0.1812,0,0.1149,0.117,0.1192,0.1216,0.1227,0.1272,0.1309,0.136,0.1419,0.149,0.1551,0.1615,0.1617,0.1659,0.1708,0.1731,0.1776,0.1715,0.1792,0.1794,0.1653,0.17,0.1748,0.1822,0.1825,0.1828,0.1829,0,0.1138,0.1156,0.1178,0.122,0.1232,0.1257,0.1342,0.1382,0.1488,0.1547,0.1649,0.1693,0.1788,0.177,0.188,0.1846,0.1859,0.187,0.1873,0.1751,0.1672,0.1772,0.1855,0.1853,0.1851,0.1849,0.1847,0,0.1103,0.1143,0.1162,0.1175,0.123,0.1264,0.1308,0.1408,0.1455,0.1604,0.1669,0.1786,0.1857,0.1915,0.1948,0.1929,0.2047,0.2008,0.189,0.1879,0.1985,0.1974,0.2089,0.2089,0.2088,0.2088,0.2088,0,0.107,0.1086,0.1154,0.1159,0.1196,0.1256,0.1327,0.1397,0.1511,0.1579,0.1708,0.1781,0.1903,0.1969,0.1987,0.1984,0.2081,0.1924,0.1898,0.1983,0.1971,0.1993,0.1981,0.2091,0.209,0.209,0.2089,0,0.1,0.1053,0.1069,0.114,0.1173,0.1199,0.1304,0.135,0.1495,0.1594,0.1644,0.1798,0.1899,0.1979,0.2069,0.2014,0.2028,0.1996,0.2089,0.2063,0.1821,0.1809,0.1881,0.1876,0.1872,0.1869,0.1867,0,0.0956,0.0962,0.1034,0.1042,0.107,0.1141,0.1182,0.1325,0.1381,0.1583,0.1607,0.1758,0.1849,0.1877,0.1961,0.1995,0.1965,0.1956,0.1891,0.1837,0.1806,0.1799,0.1792,0.1861,0.186,0.1859,0.1858,0,0.085,0.0888,0.0897,0.0929,0.0967,0.1011,0.1092,0.1132,0.1308,0.1451,0.1554,0.1622,0.1726,0.1798,0.1839,0.1852,0.1955,0.1916,0.1923,0.1863,0.1814,0.1785,0.1782,0.1845,0.1847,0.1848,0.1849,0,0.0764,0.0742,0.0767,0.0785,0.0833,0.0857,0.093,0.1016,0.1106,0.1349,0.1377,0.1556,0.1707,0.1723,0.1755,0.1765,0.1734,0.1669,0.1689,0.1704,0.1609,0.1518,0.1457,0,0,0,0,0,0.0662,0.0621,0.0618,0.0634,0.0681,0.0719,0.0846,0.0936,0.1139,0.1169,0.1277,0.1374,0.1464,0.1545,0.152,0.1645,0.1715,0.1604,0.1643,0.1773,0.1788,0.1691,0,0,0,0,0,0,0.0586,0.0562,0.0566,0.0514,0.0507,0.0554,0.064,0.0773,0.0821,0.1035,0.1099,0.1254,0.1362,0.1453,0.1478,0.1501,0.1489,0.1711,0.1707,0.1765,0.1779,0.1791,0.1695,0,0,0,0,0]},{"header":{"parameterUnit":"m.s-1","parameterCategory":2,"la1":30.2991,"la2":30.254,"lo1":-89.0895,"lo2":-89.0444,"dy":0.0017,"dx":0.0017,"nx":28,"ny":28,"refTime":"2025-04-17T21:00:00:Z","depth":"4","parameterNumber":3,"parameterNumberName":"V-component_of_CURRENTS"},"data":[0,0,0,0,0,0,0,0,0,0,0,0,0,0,0,0,0,0,0,0,0,0,0,0,0,0,0,0,0,0,0,0,0,0,0,0,0,0,0,0,0,0,0,0,0,0,0,0,0,0,0,0,0,0,0,0,0,0,0.0027,0.0027,0,0.0015,0.0014,0.0014,0.0003,0.0003,0.0003,0.0003,-0.0014,-0.0014,-0.0015,0,0,0,0,0,0,0,0,0,0,0,0,0,0.0031,0.0031,0.0027,0.0027,0.0026,0.0015,0.0014,0.0014,0.0003,0.0003,0.0003,0.0002,-0.0014,-0.0014,-0.0015,0,0,0,0,0,0,0,0,0,0,0,0,0,0.0025,0.0031,0.0027,0.0019,0.0018,0.0015,0.0014,0.0014,0.0003,0.0003,0.0003,0.0002,-0.0014,-0.0014,-0.0015,-0.0012,0,0,-0.0016,-0.0016,0,0,0,0,0,0,0,0,0.0026,0.0025,0.002,0.002,0.0019,0.001,0.001,0.0005,0.0003,0.0009,0.0003,0.0002,-0.0007,-0.0008,-0.0009,-0.0013,-0.0014,-0.0016,-0.0016,-0.0017,-0.0017,0,0,0,0,0,0,0,0.0026,0.0026,0.0022,0.002,0.0019,0.0013,0.0012,0.0009,0.0003,0.0009,0.0008,0.0006,-0.0007,-0.0008,-0.0009,-0.0014,-0.0016,-0.0016,-0.0017,-0.0017,0.0005,0.0005,0,0,0,0,0,0,0.0028,0.0026,0.0023,0.0022,0.0021,0.0013,0.0012,0.0013,0.0003,0.0001,0.0006,0.0005,-0.0007,-0.0009,-0.001,0.0018,-0.0017,-0.0017,-0.0017,0.0004,0.0005,0.0006,0,0,0,0,0,0,0.0028,0.0028,0.0023,0.0023,0.0022,0.0013,0.0015,0.0013,0.0011,0.0001,-0.0001,0.0006,-0.0008,-0.0009,-0.0006,0.0016,-0.0017,-0.0017,0.0003,0.0004,0.0005,0.0058,0,0,0,0,0,0,0.0028,0.0028,0.0029,0.0023,0.0022,0.0026,0.0015,0.0013,0.001,0.0009,0.0,-0.0002,-0.0008,-0.0005,-0.0006,0.0015,-0.0018,0.0002,0.0003,0.0005,0.0055,0.006,0.0065,0,0,0,0,0,0.0028,0.0033,0.0029,0.0028,0.0024,0.0026,0.0025,0.0018,0.0011,0.0014,0.001,-0.0001,0.0004,-0.0005,-0.0006,0.0015,0.0001,0.0003,0.0005,0.0052,0.0059,0.0065,0,0,0,0,0,0,0.0033,0.0032,0.0028,0.003,0.003,0.0024,0.0025,0.002,0.0019,0.0018,0.0006,0.0005,0.0017,0.0007,-0.0003,0.0026,0.0002,0.0004,0.0039,0.0045,0.005,0.0048,-0.0018,0,0,0,0,0,0.0035,0.0039,0.0036,0.0038,0.0038,0.0032,0.003,0.0028,0.0026,0.0024,0.0019,0.0017,0.0024,0.0026,0.0026,0.0039,0.0007,0.0053,0.0058,0.0063,0.006,0.0027,0.0028,0.0012,0.0012,0.0012,0,0,0.0036,0.0036,0.0037,0.0039,0.0037,0.0052,0.0031,0.0033,0.0049,0.0023,0.004,0.0033,0.0031,0.0049,0.0054,0.0043,0.0051,0.0065,0.0069,0.0063,0.0029,0.003,0.0031,0.0013,0.0013,0.0013,0,0,0.0049,0.0042,0.0054,0.006,0.0062,0.0062,0.0064,0.0062,0.0064,0.0076,0.0068,0.0071,0.0077,0.0083,0.0086,0.0118,0.0078,0.0122,0.0149,0.0117,0.0118,0.0118,0.008,0.0077,0.0126,0.0126,0.0126,0,0.0049,0.0068,0.0057,0.0076,0.0086,0.007,0.0093,0.0095,0.0096,0.0101,0.0089,0.0098,0.0095,0.0119,0.0135,0.0131,0.0099,0.0126,0.0123,0.0123,0.0122,0.0083,0.0078,0.0129,0.0129,0.0129,0.0128,0,0.0078,0.0094,0.0102,0.0124,0.0132,0.0147,0.0152,0.0158,0.0154,0.0156,0.0168,0.0158,0.0162,0.0168,0.0163,0.0169,0.0143,0.0131,0.0105,0.0127,0.0084,0.0079,0.0133,0.0132,0.0131,0.0131,0,0,0.0078,0.0115,0.0119,0.0144,0.0161,0.0174,0.0197,0.0215,0.023,0.0223,0.0237,0.0248,0.0228,0.023,0.022,0.0197,0.017,0.0165,0.0162,0.0124,0.0089,0.0088,0.0081,0.0152,0.0152,0.0151,0.0062,0,0.0106,0.0153,0.0164,0.0214,0.024,0.0242,0.0267,0.028,0.0279,0.0286,0.027,0.0279,0.0257,0.0259,0.0233,0.0187,0.0157,0.0195,0.0077,0.0073,0.0067,0.0076,0.0149,0.0057,0.0056,0.0055,0.0054,0,0.0134,0.0164,0.0216,0.0268,0.0279,0.0307,0.0338,0.036,0.0363,0.036,0.0352,0.0329,0.0311,0.028,0.0199,0.0221,0.0159,0.0113,0.0108,0.0084,0.0062,0.0031,0.0043,0.0043,0.0044,0.0045,0.0046,0,0.0147,0.0204,0.0248,0.0266,0.0316,0.0341,0.0367,0.0383,0.0411,0.0404,0.0409,0.037,0.0357,0.0272,0.0185,0.0185,0.0076,0.0065,0.0002,0.0,0.0003,0.0003,-0.0006,-0.0006,-0.0006,-0.0006,-0.0005,0,0.0175,0.0212,0.0261,0.0288,0.0349,0.037,0.0429,0.0439,0.0461,0.0501,0.045,0.0454,0.0352,0.0281,0.0188,0.0079,0.0075,0.0002,-0.0021,0.0028,0.0032,-0.0002,-0.0,-0.0009,-0.0008,-0.0008,-0.0007,0,0.0187,0.0214,0.0274,0.0334,0.036,0.0404,0.0485,0.0525,0.0529,0.0572,0.0573,0.0517,0.0425,0.0309,0.0172,0.0095,-0.0017,-0.0058,-0.0,-0.0019,-0.0077,-0.0072,-0.0141,-0.0141,-0.0142,-0.0142,-0.0143,0,0.0198,0.0228,0.0311,0.0358,0.0392,0.0465,0.0522,0.0559,0.0604,0.0615,0.0636,0.0557,0.0508,0.031,0.0178,-0.0013,-0.0036,-0.0104,-0.0088,-0.0074,-0.0091,-0.0084,-0.0078,-0.0144,-0.0144,-0.0144,-0.0144,0,0.0227,0.0255,0.0313,0.0403,0.0474,0.0561,0.064,0.0672,0.0716,0.0712,0.0694,0.0592,0.0485,0.0325,0.0175,0.004,-0.0065,-0.0111,-0.0111,-0.0096,-0.0079,-0.0093,-0.0086,-0.0147,-0.0146,-0.0146,-0.0146,0,0.0259,0.0307,0.0384,0.0463,0.0554,0.0642,0.0676,0.0732,0.077,0.0767,0.0758,0.0633,0.0559,0.0351,0.0215,0.008,0.0045,-0.0002,-0.0008,-0.0007,0.006,0.0103,0.007,0,0,0,0,0,0.0299,0.0363,0.044,0.0541,0.0625,0.0678,0.0758,0.0781,0.0804,0.0803,0.0785,0.0685,0.0483,0.0387,0.0254,0.0195,0.0016,0.0033,-0.0042,-0.0159,-0.0156,-0.01,0,0,0,0,0,0,0.0335,0.0419,0.0454,0.0586,0.0658,0.0764,0.0815,0.0827,0.0823,0.0812,0.0705,0.0648,0.0448,0.0565,0.0252,0.0209,0.0141,-0.0065,-0.0068,-0.016,-0.0158,-0.0156,-0.0097,0,0,0,0,0]}]]